"America/Chicago Time","Lifetime Energy (kWh)","Power (W)","AC Volts RMS (V) ","AC Amps RMS (mA)","Grid Frequency (Hz)","Inverter Temperature (C)"
"08/06/12 09:54:33","429662.7086","136.6","215.41","634","60.0","32"
"08/06/12 09:59:33","429662.7193","137.7","214.75","646","60.03","33"
"08/06/12 10:04:34","429662.7301","139.7","214.85","656","60.03","33"
"08/06/12 10:09:33","429662.7411","142.3","214.14","668","60.03","34"
"08/06/12 10:14:32","429662.7523","145.7","215.6","675","60.03","34"
"08/06/12 10:19:34","429662.7636","146.1","215.09","683","60.03","34"
"08/06/12 10:24:34","429662.7752","148.5","214.61","692","60.0","34"
"08/06/12 10:29:33","429662.7868","151.3","214.67","709","60.0","35"
"08/06/12 10:34:34","429662.7987","153.2","215.12","708","60.0","35"
"08/06/12 10:39:34","429662.8108","155.3","216.1","722","60.0","35"
"08/06/12 10:44:33","429662.8229","157.3","215.02","729","60.0","35"
"08/06/12 10:49:33","429662.8352","157.7","215.2","732","60.03","36"
"08/06/12 10:54:32","429662.8476","159.9","215.02","742","60.03","36"
"08/06/12 10:59:32","429662.8601","161.5","216.63","747","60.03","36"
"08/06/12 11:04:33","429662.8728","162.8","216.41","750","60.0","37"
"08/06/12 11:09:33","429662.8856","164.7","216.56","758","60.03","37"
"08/06/12 11:14:34","429662.8985","165.8","216.05","765","60.03","37"
"08/06/12 11:19:33","429662.9114","166.9","216.04","767","60.0","37"
"08/06/12 11:24:34","429662.9245","167.6","216.65","772","60.03","37"
"08/06/12 11:29:34","429662.9376","166.4","216.54","763","60.0","37"
"08/06/12 11:34:33","429662.9507","169.9","215.38","782","60.0","37"
"08/06/12 11:39:32","429662.9639","170.3","214.48","788","60.03","38"
"08/06/12 11:44:33","429662.9773","171.3","214.85","793","60.03","38"
"08/06/12 11:49:33","429662.9907","172.5","214.93","800","60.03","38"
"08/06/12 11:54:33","429663.0042","173.4","215.5","797","60.0","38"
"08/06/12 11:59:32","429663.0175","175.2","215.6","807","60.0","38"
"08/06/12 12:04:33","429663.0311","175.6","215.81","808","60.0","38"
"08/06/12 12:09:33","429663.0448","177.4","215.09","819","60.0","38"
"08/06/12 12:14:33","429663.0583","170.9","214.8","789","60.0","38"
"08/06/12 12:19:34","429663.0715","170.6","216.11","784","60.0","38"
"08/06/12 12:24:32","429663.0849","177.3","216.43","810","60.0","38"
"08/06/12 12:29:32","429663.0987","176.6","214.72","814","60.0","38"
"08/06/12 12:34:34","429663.1127","179.3","214.87","825","60.0","38"
"08/06/12 12:39:32","429663.1265","178.0","215.37","815","60.0","38"
"08/06/12 12:44:33","429663.1397","120.8","214.35","577","60.0","38"
"08/06/12 12:49:34","429663.1499","34.0","212.9","117","60.0","37"
"08/06/12 12:54:33","429663.1627","180.2","216.48","826","60.0","38"
"08/06/12 12:59:32","429663.1766","180.6","216.04","825","60.03","38"
"08/06/12 13:04:32","429663.1907","183.1","216.13","840","60.03","38"
"08/06/12 13:09:33","429663.203","112.7","213.27","543","60.03","38"
"08/06/12 13:14:33","429663.216","181.7","216.38","832","60.03","38"
"08/06/12 13:19:33","429663.2295","148.1","216.4","683","60.0","38"
"08/06/12 13:24:33","429663.2424","175.4","216.62","801","60.0","38"
"08/06/12 13:29:33","429663.2559","172.2","216.96","786","60.03","38"
"08/06/12 13:34:33","429663.2685","140.5","215.7","658","60.03","38"
"08/06/12 13:39:32","429663.2763","79.6","214.4","389","60.03","36"
"08/06/12 13:44:33","429663.2868","187.9","216.27","853","60.0","37"
"08/06/12 13:49:34","429663.2999","163.1","215.42","756","60.03","37"
"08/06/12 13:54:32","429663.3117","160.2","215.76","744","60.0","37"
"08/06/12 13:59:33","429663.3234","149.9","215.52","703","60.03","38"
"08/06/12 14:04:32","429663.3345","150.0","216.34","696","60.03","37"
"08/06/12 14:09:34","429663.3466","157.4","216.04","728","60.0","38"
"08/06/12 14:14:34","429663.3586","144.0","215.69","672","60.03","38"
"08/06/12 14:19:33","429663.3682","132.4","216.55","621","60.03","38"
"08/06/12 14:24:33","429663.3779","136.6","216.61","636","60.03","38"
"08/06/12 14:29:34","429663.388","102.3","215.96","492","60.0","38"
"08/06/12 14:34:32","429663.3989","113.3","215.22","541","60.0","38"
"08/06/12 14:39:33","429663.409","138.2","216.11","647","60.03","38"
"08/06/12 14:44:33","429663.4191","102.5","216.16","489","60.03","37"
"08/06/12 14:49:33","429663.4311","165.0","216.87","757","60.03","38"
"08/06/12 14:54:34","429663.4436","159.1","216.13","730","60.03","38"
"08/06/12 14:59:33","429663.4551","125.6","215.58","593","60.03","38"
"08/06/12 15:04:33","429663.4662","127.0","215.62","600","60.03","38"
"08/06/12 15:09:34","429663.4748","78.7","213.84","390","60.03","37"
"08/06/12 15:14:33","429663.4813","56.5","213.21","82","60.03","36"
"08/06/12 15:19:34","429663.4854","62.7","213.36","115","60.0","35"
"08/06/12 15:24:33","429663.4896","45.6","213.51","230","60.0","34"
"08/06/12 15:29:33","429663.4932","34.0","214.34","107","60.03","33"
"08/06/12 15:34:34","429663.4959","28.5","213.89","205","60.0","33"
"08/06/12 15:39:32","429663.4977","14.8","213.24","29","60.03","32"
"08/06/12 15:44:32","429663.4993","29.5","213.89","58","60.03","32"
"08/06/12 15:49:33","429663.5016","35.4","214.34","97","60.0","31"
"08/06/12 15:54:32","429663.504","18.5","213.39","323","60.03","31"
"08/06/12 15:59:33","429663.5058","16.1","213.67","245","60.03","31"
"08/06/12 16:04:34","429663.5072","13.4","214.26","29","60.03","30"
"08/06/12 16:09:33","429663.5085","28.3","214.59","60","60.03","30"
"08/06/12 16:14:32","429663.5101","12.3","214.43","8","60.03","30"
"08/06/12 16:19:33","429663.5111","14.3","214.11","0","60.0","29"
"08/06/12 16:24:34","429663.512","14.3","213.22","69","60.03","29"
"08/06/12 16:29:34","429663.5134","30.4","214.48","83","60.0","29"
"08/06/12 16:34:33","429663.5156","24.8","214.41","121","60.03","29"
"08/06/12 16:39:33","429663.5185","36.8","213.99","97","60.03","29"
"08/06/12 16:44:33","429663.5217","28.6","214.07","169","60.03","29"
"08/06/12 16:49:33","429663.524","36.6","213.37","131","60.0","29"
"08/06/12 16:54:32","429663.5261","13.6","213.09","26","60.03","29"
"08/06/12 16:59:34","429663.5273","8.5","214.45","0","60.03","29"
"08/06/12 17:04:33","429663.5282","10.5","214.11","8","60.03","29"
"08/06/12 17:09:34","429663.5289","14.0","214.6","22","60.0","29"
"08/06/12 17:14:34","429663.5293","10.5","214.25","30","60.0","29"
"08/06/12 17:19:34","429663.5298","11.5","214.04","1","60.0","28"
"08/06/12 17:24:33","429663.5305","15.4","213.65","22","60.03","28"
"08/06/12 17:29:34","429663.5313","14.5","213.71","1","60.03","28"
"08/06/12 17:34:33","429663.5318","5.3","212.47","178","60.03","28"
"08/06/12 17:39:34","429663.5326","31.9","213.78","134","60.07","28"
"08/06/12 17:44:34","429663.5349","28.3","214.55","158","60.03","28"
"08/06/12 17:49:34","429663.5374","39.7","213.94","191","60.03","28"
"08/06/12 17:54:33","429663.5403","37.9","214.2","82","60.03","29"
"08/06/12 17:59:33","429663.5437","33.3","213.62","16","60.03","29"
"08/06/12 18:04:33","429663.5456","19.8","214.06","116","60.03","29"
"08/06/12 18:09:34","429663.5473","11.9","214.87","170","60.0","29"
"08/06/12 18:14:34","429663.5503","41.7","214.41","164","60.0","30"
"08/06/12 18:19:33","429663.5524","37.1","214.01","144","60.03","30"
"08/06/12 18:24:33","429663.5539","17.1","213.96","268","60.03","30"
"08/06/12 18:29:34","429663.5552","11.8","213.57","54","60.03","30"
"08/06/12 18:34:34","429663.5566","18.6","213.89","200","60.03","30"
"08/06/12 18:39:34","429663.5576","11.5","214.27","31","60.03","30"
"08/07/12 06:49:38","429663.5585","13.3","214.08","145","60.07","19"
"08/07/12 06:54:38","429663.5594","12.2","213.8","156","60.07","19"
"08/07/12 06:59:36","429663.5606","17.2","212.62","25","60.0","19"
"08/07/12 07:04:38","429663.5621","13.4","213.25","21","60.03","20"
"08/07/12 07:09:36","429663.5637","25.1","214.65","65","60.03","20"
"08/07/12 07:14:36","429663.5656","38.3","214.85","199","60.03","20"
"08/07/12 07:19:36","429663.5678","34.4","214.64","81","60.03","21"
"08/07/12 07:24:37","429663.5703","29.7","214.17","77","60.0","21"
"08/07/12 07:29:37","429663.5731","32.4","215.1","236","60.0","22"
"08/07/12 07:34:37","429663.5762","37.6","214.39","100","60.03","22"
"08/07/12 07:39:38","429663.5796","41.4","215.86","109","60.07","23"
"08/07/12 07:44:36","429663.5833","44.1","214.28","382","60.03","23"
"08/07/12 07:49:38","429663.5873","58.1","214.16","206","60.03","23"
"08/07/12 07:54:36","429663.5916","58.6","214.52","396","60.03","24"
"08/07/12 07:59:37","429663.5955","59.7","214.81","224","60.03","24"
"08/07/12 08:04:37","429663.5994","50.4","214.89","361","60.0","25"
"08/07/12 08:09:37","429663.6047","70.4","214.88","356","60.03","25"
"08/07/12 08:14:37","429663.6103","74.5","214.0","375","60.0","25"
"08/07/12 08:19:38","429663.6163","78.1","214.26","390","60.0","26"
"08/07/12 08:24:37","429663.6225","82.2","215.81","403","60.0","26"
"08/07/12 08:29:37","429663.6291","86.3","215.98","418","60.0","27"
"08/07/12 08:34:36","429663.6356","86.2","215.82","419","60.0","27"
"08/07/12 08:39:37","429663.6427","93.0","216.02","452","60.03","27"
"08/07/12 08:44:38","429663.6501","96.9","215.27","468","60.03","27"
"08/07/12 08:49:38","429663.6578","100.5","215.46","481","60.03","28"
"08/07/12 08:54:37","429663.6658","103.6","216.66","498","60.03","28"
"08/07/12 08:59:36","429663.6739","107.0","215.26","513","60.03","28"
"08/07/12 09:04:36","429663.6823","109.6","213.98","526","60.0","29"
"08/07/12 09:09:38","429663.691","113.5","215.02","539","60.0","29"
"08/07/12 09:14:37","429663.6999","116.6","216.04","550","60.0","30"
"08/07/12 09:19:38","429663.7092","119.7","215.85","564","60.0","30"
"08/07/12 09:24:36","429663.7185","122.0","216.47","572","60.03","30"
"08/07/12 09:29:37","429663.7281","124.0","215.84","586","60.0","31"
"08/07/12 09:34:36","429663.7379","127.5","215.87","600","60.03","31"
"08/07/12 09:39:37","429663.7479","130.3","216.14","611","60.0","31"
"08/07/12 09:44:37","429663.7582","133.4","216.17","621","60.03","31"
"08/07/12 09:49:37","429663.7687","134.6","217.14","631","60.03","32"
"08/07/12 09:54:37","429663.7792","137.5","217.35","637","60.03","32"
"08/07/12 09:59:38","429663.79","140.1","216.71","650","60.03","32"
"08/07/12 10:04:37","429663.8009","142.1","216.44","659","60.03","33"
"08/07/12 10:09:37","429663.8121","145.0","217.36","670","60.0","33"
"08/07/12 10:14:36","429663.8234","147.1","217.23","681","60.0","33"
"08/07/12 10:19:36","429663.835","148.9","217.15","687","60.0","33"
"08/07/12 10:24:37","429663.8466","151.1","217.22","695","60.03","34"
"08/07/12 10:29:38","429663.8584","152.5","215.48","706","60.0","34"
"08/07/12 10:34:36","429663.8702","154.2","216.25","711","60.0","35"
"08/07/12 10:39:36","429663.8823","154.9","216.36","716","60.0","35"
"08/07/12 10:44:36","429663.8945","158.2","216.37","730","60.0","35"
"08/07/12 10:49:37","429663.9069","158.9","216.34","740","60.0","36"
"08/07/12 10:54:37","429663.9194","162.1","216.77","745","60.03","36"
"08/07/12 10:59:37","429663.9322","163.2","217.65","747","60.07","36"
"08/07/12 11:04:38","429663.945","167.4","216.55","770","60.03","35"
"08/07/12 11:09:38","429663.9581","167.3","220.43","757","60.0","36"
"08/07/12 11:14:38","429663.9712","170.0","217.78","773","59.96","35"
"08/07/12 11:19:36","429663.9845","171.1","217.99","782","60.03","35"
"08/07/12 11:24:37","429663.9979","172.8","214.51","796","60.03","35"
"08/07/12 11:29:37","429664.0113","173.1","215.57","795","60.0","35"
"08/07/12 11:34:38","429664.0249","173.6","216.0","799","60.0","35"
"08/07/12 11:39:36","429664.0383","172.5","217.27","788","60.03","36"
"08/07/12 11:44:37","429664.0518","173.1","216.85","788","60.03","36"
"08/07/12 11:49:40","429664.0655","174.8","216.3","799","60.03","36"
"08/07/12 11:54:36","429664.0789","176.1","218.18","798","60.03","36"
"08/07/12 11:59:37","429664.0926","175.4","218.28","802","60.07","37"
"08/07/12 12:04:37","429664.1063","177.2","217.37","812","60.0","37"
"08/07/12 12:09:38","429664.1201","176.4","217.51","807","60.0","38"
"08/07/12 12:14:38","429664.1337","175.8","217.55","804","60.03","38"
"08/07/12 12:19:36","429664.1476","178.2","217.18","817","60.0","38"
"08/07/12 12:24:37","429664.1615","180.0","217.48","820","60.0","38"
"08/07/12 12:29:37","429664.1757","181.2","216.69","830","60.0","37"
"08/07/12 12:34:37","429664.1898","180.6","216.86","823","60.0","38"
"08/07/12 12:39:36","429664.2038","182.0","217.12","827","60.0","37"
"08/07/12 12:44:36","429664.218","179.2","216.36","821","60.0","37"
"08/07/12 12:49:37","429664.232","179.1","217.88","814","60.0","37"
"08/07/12 12:54:37","429664.2459","178.8","217.15","815","60.0","38"
"08/07/12 12:59:37","429664.2599","177.8","218.0","809","60.03","38"
"08/07/12 13:04:37","429664.2737","176.5","217.78","801","60.03","38"
"08/07/12 13:09:37","429664.2876","178.1","217.5","811","60.03","38"
"08/07/12 13:14:38","429664.3015","177.6","217.33","811","60.0","38"
"08/07/12 13:19:37","429664.3154","177.0","217.34","806","60.03","38"
"08/07/12 13:24:38","429664.3292","176.5","217.18","803","60.0","38"
"08/07/12 13:29:37","429664.3429","174.5","217.6","796","60.0","38"
"08/07/12 13:34:38","429664.3566","174.5","218.09","793","60.03","38"
"08/07/12 13:39:36","429664.3701","172.6","218.47","786","60.03","38"
"08/07/12 13:44:38","429664.3835","171.8","217.53","784","60.03","38"
"08/07/12 13:49:37","429664.3969","171.2","217.86","782","60.0","38"
"08/07/12 13:54:37","429664.4102","170.0","218.15","772","60.03","38"
"08/07/12 13:59:36","429664.4234","168.5","217.82","772","60.03","38"
"08/07/12 14:04:36","429664.4365","170.4","217.3","780","60.0","38"
"08/07/12 14:09:38","429664.4498","167.1","217.2","770","60.0","38"
"08/07/12 14:14:37","429664.4627","164.5","216.39","754","60.0","38"
"08/07/12 14:19:37","429664.4757","166.8","216.53","764","60.03","37"
"08/07/12 14:24:38","429664.4885","161.7","216.3","746","60.03","37"
"08/07/12 14:29:37","429664.5011","161.5","217.3","743","60.03","37"
"08/07/12 14:34:37","429664.5135","160.4","216.98","738","60.0","37"
"08/07/12 14:39:37","429664.5259","157.9","217.27","725","60.0","37"
"08/07/12 14:44:37","429664.5381","155.1","217.37","710","60.0","37"
"08/07/12 14:49:37","429664.5501","153.2","217.55","703","60.03","37"
"08/07/12 14:54:38","429664.5619","150.8","215.87","700","60.0","37"
"08/07/12 14:59:38","429664.5738","151.6","216.04","702","60.03","36"
"08/07/12 15:04:38","429664.5855","149.7","215.94","696","60.03","36"
"08/07/12 15:09:37","429664.597","146.9","216.0","679","60.0","35"
"08/07/12 15:14:38","429664.6084","143.0","215.42","665","60.03","36"
"08/07/12 15:19:37","429664.6194","142.4","216.28","664","60.0","35"
"08/07/12 15:24:36","429664.6305","141.5","216.26","658","60.0","34"
"08/07/12 15:29:38","429664.6415","139.0","216.4","647","60.03","33"
"08/07/12 15:34:36","429664.6522","136.5","216.7","639","60.03","33"
"08/07/12 15:39:36","429664.6627","133.0","216.21","623","60.0","32"
"08/07/12 15:44:37","429664.6729","128.4","216.22","606","60.03","33"
"08/07/12 15:49:36","429664.6827","124.9","215.64","590","60.03","33"
"08/07/12 15:54:38","429664.6924","122.1","215.81","575","60.03","34"
"08/07/12 15:59:38","429664.7018","119.7","216.03","569","60.0","34"
"08/07/12 16:04:37","429664.7109","117.5","215.83","554","60.03","33"
"08/07/12 16:09:38","429664.72","114.8","216.12","543","60.0","33"
"08/07/12 16:14:37","429664.7288","110.5","216.13","528","60.03","33"
"08/07/12 16:19:38","429664.7373","108.0","215.54","516","60.0","33"
"08/07/12 16:24:37","429664.7455","104.2","215.36","500","60.0","33"
"08/07/12 16:29:38","429664.7536","101.4","215.4","489","60.03","32"
"08/07/12 16:34:37","429664.7613","98.8","215.03","475","60.0","32"
"08/07/12 16:39:36","429664.7688","95.4","214.63","462","60.03","32"
"08/07/12 16:44:36","429664.776","91.3","214.44","447","60.03","31"
"08/07/12 16:49:36","429664.783","87.5","215.03","429","60.03","31"
"08/07/12 16:54:36","429664.7897","83.9","215.6","409","60.03","31"
"08/07/12 16:59:37","429664.796","79.5","215.49","394","60.03","31"
"08/07/12 17:04:37","429664.8021","75.2","215.13","375","60.03","30"
"08/07/12 17:09:37","429664.8078","71.5","215.4","359","60.07","30"
"08/07/12 17:14:38","429664.8132","67.5","215.24","339","60.0","30"
"08/07/12 17:19:37","429664.8183","63.7","215.42","321","60.07","30"
"08/07/12 17:24:37","429664.8231","60.2","214.28","406","60.0","29"
"08/07/12 17:29:38","429664.8271","43.6","214.69","135","60.03","29"
"08/07/12 17:34:37","429664.831","45.1","214.86","354","60.0","29"
"08/07/12 17:39:37","429664.8348","45.5","214.7","244","60.03","29"
"08/07/12 17:44:37","429664.8383","38.8","214.5","129","60.0","28"
"08/07/12 17:49:36","429664.8415","42.5","214.94","246","60.07","28"
"08/07/12 17:54:37","429664.8444","30.3","213.94","311","60.03","28"
"08/07/12 17:59:37","429664.847","34.6","213.63","236","60.03","28"
"08/07/12 18:04:36","429664.8494","32.7","214.2","156","60.03","28"
"08/07/12 18:09:37","429664.8515","18.3","214.35","102","60.03","28"
"08/07/12 18:14:36","429664.8533","29.3","214.31","171","60.03","28"
"08/07/12 18:19:37","429664.8548","10.6","213.99","5","60.03","28"
"08/07/12 18:24:37","429664.8561","21.7","214.46","260","60.07","28"
"08/07/12 18:29:37","429664.8572","12.1","213.96","160","60.03","28"
"08/07/12 18:34:38","429664.8581","13.2","214.34","53","60.03","27"
"08/07/12 18:39:37","429664.8589","3.9","214.44","0","60.03","27"
"08/07/12 18:44:37","429664.8595","3.3","214.79","0","60.0","27"
"08/07/12 18:49:38","429664.8601","14.2","213.36","6","60.03","27"
"08/07/12 18:54:37","429664.8608","14.4","213.69","34","60.03","27"
"08/07/12 18:59:38","429664.8615","11.9","213.15","24","60.03","26"
"08/07/12 19:04:37","429664.8622","15.3","213.17","1","60.03","26"
"08/07/12 19:09:40","429664.8632","9.7","213.65","96","60.0","25"
"08/07/12 19:14:36","429664.8638","15.0","213.3","253","60.0","25"
"08/07/12 19:19:37","429664.8643","0.0","214.09","0","60.03","24"
"08/07/12 19:24:37","429664.8647","0.0","213.08","0","60.0","24"
"08/08/12 06:29:48","429664.8647","6.2","214.57","228","60.03","16"
"08/08/12 06:54:41","429664.8661","11.8","213.34","78","60.03","17"
"08/08/12 06:59:41","429664.8668","7.1","214.42","0","60.0","18"
"08/08/12 07:04:41","429664.8674","0.0","214.49","0","60.03","18"
"08/08/12 07:09:41","429664.8682","14.6","215.07","54","60.03","18"
"08/08/12 07:14:41","429664.8691","11.7","215.21","9","60.0","18"
"08/08/12 07:19:42","429664.8701","11.1","215.55","1","60.07","18"
"08/08/12 07:24:40","429664.871","13.5","213.45","10","60.03","19"
"08/08/12 07:29:41","429664.8725","25.3","213.87","20","60.0","19"
"08/08/12 07:34:41","429664.8755","40.7","214.64","121","60.0","19"
"08/08/12 07:39:41","429664.8791","48.0","213.56","271","60.03","20"
"08/08/12 07:44:41","429664.8823","46.7","213.41","228","60.03","20"
"08/08/12 07:49:41","429664.8851","38.4","212.91","117","60.03","20"
"08/08/12 07:54:41","429664.8874","33.6","213.56","283","60.03","21"
"08/08/12 07:59:41","429664.8896","30.3","213.61","67","60.03","21"
"08/08/12 08:04:42","429664.8911","13.2","213.23","286","60.0","21"
"08/08/12 08:09:42","429664.8922","11.2","213.29","107","60.03","21"
"08/08/12 08:14:40","429664.8931","16.2","213.05","61","60.03","21"
"08/08/12 08:19:41","429664.8943","12.1","213.22","259","60.03","21"
"08/08/12 08:24:41","429664.8957","29.7","213.76","268","59.96","22"
"08/08/12 08:34:41","429664.8999","42.3","213.56","202","60.0","22"
"08/08/12 08:39:41","429664.9025","26.8","213.5","179","60.0","22"
"08/08/12 08:44:41","429664.9046","10.4","212.17","4","60.03","22"
"08/08/12 08:49:40","429664.9058","14.1","213.65","17","60.03","22"
"08/08/12 08:54:40","429664.907","11.2","213.75","0","60.03","22"
"08/08/12 08:59:41","429664.9079","11.4","213.32","5","60.03","22"
"08/08/12 09:04:41","429664.9083","14.8","214.36","94","60.0","22"
"08/08/12 09:09:40","429664.9096","17.6","213.1","11","60.0","22"
"08/08/12 09:14:45","429664.9111","32.9","213.7","307","60.03","22"
"08/08/12 09:19:40","429664.9135","38.8","214.21","303","60.03","22"
"08/08/12 09:24:40","429664.9158","29.3","213.56","188","60.0","22"
"08/08/12 09:29:41","429664.9186","37.8","213.78","180","60.0","22"
"08/08/12 09:34:41","429664.9222","67.7","214.13","363","60.03","23"
"08/08/12 09:39:41","429664.9267","142.8","215.69","666","60.0","23"
"08/08/12 09:44:42","429664.9367","64.2","214.43","328","60.0","24"
"08/08/12 09:49:41","429664.9418","63.0","213.46","322","60.0","24"
"08/08/12 09:54:40","429664.9463","40.7","213.4","347","60.0","25"
"08/08/12 09:59:41","429664.9502","39.2","213.32","261","60.03","25"
"08/08/12 10:04:40","429664.9532","48.3","213.7","139","60.03","25"
"08/08/12 10:09:40","429664.9585","103.4","213.48","500","60.03","25"
"08/08/12 10:14:40","429664.9648","70.5","214.13","354","60.03","25"
"08/08/12 10:19:41","429664.9704","72.8","213.63","366","60.0","25"
"08/08/12 10:24:41","429664.9767","77.0","214.68","381","60.0","25"
"08/08/12 10:29:41","429664.9834","91.8","215.0","450","60.0","26"
"08/08/12 10:34:40","429664.9889","50.1","214.22","157","60.0","26"
"08/08/12 10:39:41","429664.992","43.9","214.54","301","60.03","26"
"08/08/12 10:44:42","429664.995","37.7","213.8","95","60.03","25"
"08/08/12 10:49:42","429664.9972","24.5","213.36","17","60.07","25"
"08/08/12 10:54:40","429664.9992","33.4","213.51","166","60.03","25"
"08/08/12 10:59:41","429665.0008","19.3","214.2","35","60.03","24"
"08/08/12 11:04:41","429665.0023","20.3","214.89","15","60.03","24"
"08/08/12 11:09:40","429665.0039","20.9","213.77","293","60.03","24"
"08/08/12 11:14:41","429665.0059","28.5","213.88","282","60.03","23"
"08/08/12 11:19:41","429665.009","45.9","214.13","356","60.0","23"
"08/08/12 11:24:40","429665.0134","45.8","214.72","216","60.03","23"
"08/08/12 11:29:41","429665.0173","38.6","213.64","101","60.0","24"
"08/08/12 11:34:41","429665.0209","52.4","213.64","115","60.0","24"
"08/08/12 11:39:41","429665.0244","38.7","213.35","380","60.03","24"
"08/08/12 11:44:41","429665.0273","37.4","212.8","85","60.0","24"
"08/08/12 11:49:42","429665.0298","37.2","214.19","295","60.03","23"
"08/08/12 11:54:40","429665.0331","44.9","213.81","396","60.0","23"
"08/08/12 11:59:40","429665.0368","40.4","214.27","373","60.03","24"
"08/08/12 12:04:40","429665.0407","51.6","214.22","352","60.03","24"
"08/08/12 12:09:40","429665.0448","67.6","214.61","372","60.03","24"
"08/08/12 12:14:41","429665.0496","68.9","214.4","349","60.03","24"
"08/08/12 12:19:40","429665.0558","86.6","215.7","423","60.0","24"
"08/08/12 12:24:41","429665.0616","62.7","214.05","325","60.0","24"
"08/08/12 12:29:41","429665.0666","67.8","214.84","344","60.03","24"
"08/08/12 12:34:41","429665.0727","83.4","214.54","412","60.03","25"
"08/08/12 12:39:40","429665.0806","110.2","213.88","528","60.03","25"
"08/08/12 12:44:40","429665.0881","93.3","214.68","454","60.03","25"
"08/08/12 12:49:40","429665.0952","80.9","213.84","403","60.07","25"
"08/08/12 12:54:40","429665.1012","84.0","214.39","413","60.03","25"
"08/08/12 12:59:41","429665.1098","142.1","215.7","668","60.03","26"
"08/08/12 13:04:41","429665.1217","153.1","215.57","711","60.03","27"
"08/08/12 13:09:41","429665.1327","99.9","215.22","485","60.03","27"
"08/08/12 13:14:40","429665.142","102.9","215.24","494","60.0","28"
"08/08/12 13:19:41","429665.1482","74.2","214.25","371","60.0","27"
"08/08/12 13:24:42","429665.1533","61.5","214.49","386","60.03","27"
"08/08/12 13:29:42","429665.1573","53.8","214.51","290","60.03","26"
"08/08/12 13:34:41","429665.1606","42.7","214.46","320","60.03","26"
"08/08/12 13:39:41","429665.1633","27.4","214.79","240","60.03","25"
"08/08/12 13:44:41","429665.1655","30.2","214.66","127","60.03","25"
"08/08/12 13:49:42","429665.1679","30.1","214.85","275","60.03","25"
"08/08/12 13:54:42","429665.1706","40.3","214.37","154","60.03","24"
"08/08/12 13:59:40","429665.1732","34.7","213.88","118","60.03","24"
"08/08/12 14:04:41","429665.1761","38.6","213.87","181","60.03","24"
"08/08/12 14:09:41","429665.1797","50.1","214.13","118","60.03","24"
"08/08/12 14:14:40","429665.183","48.3","214.13","305","60.03","24"